{"data":{"norad_id":57352,"epoch":"2026-05-24T18:27:04.934304Z","epoch_age_seconds":105091,"freshness":"FRESH","line1":"1 57352U 23099AA  26144.76880711  .00001240  00000+0  54552-4 0  9991","line2":"2 57352  43.0007 172.1121 0001323 272.8398  87.2302 15.27588336157835","mean_motion":15.27588336,"eccentricity":0.0001323,"inclination_deg":43.0007,"raan_deg":172.1121,"arg_perigee_deg":272.8398,"mean_anomaly_deg":87.2302,"bstar":5.4552e-5,"rev_number":15783,"period_min":94.266234303062,"perigee_km":482.11640355212,"apogee_km":483.93186678848,"semimajor_km":6861.1611351703,"source":"CELESTRAK","updated_at":"2026-05-25T13:38:18.290723Z"}}